Location: Helsinki
(60.1699°N, 24.9384°E)
Time: 19:44:11
(UTC+02:00)

Transit 4A - Pass Details

Date: 31 October 2020
Orbit: 862 x 982 km, 66.8° (Epoch: 29 November)

Event Time Altitude Azimuth Distance (km) Brightness Sun altitude
Rises 19:36:18 0° 286° (WNW) 3,676 12.5 -23.9°
Reaches altitude 10° 19:38:58 10° 292° (WNW) 2,737 11.4 -24.2°
Maximum altitude 19:45:11 48° 6° (N) 1,267 8.6 -25.0°
Enters shadow 19:46:58 39° 49° (NE) 1,447 8.6 -25.2°
Drops below altitude 10° 19:51:23 10° 81° (E) 2,737 - -25.7°
Sets 19:54:04 0° 87° (E) 3,676 - -26.0°
